Location: Archemont
(49.1579°N, 1.7598°E)
Time: 21:43:48
(UTC+00:00)

Altair - Pass Details

Date: 20 April 2024
Orbit: 1501 x 1682 km, 47.2° (Epoch: 19 May)

Event Time Altitude Azimuth Distance (km) Brightness Sun altitude
Rises 23:37:25 0° 285° (WNW) 4,855 10.3 -28.8°
Reaches altitude 10° 23:40:38 10° 282° (WNW) 3,844 9.7 -28.8°
Maximum altitude 23:50:08 60° 206° (SSW) 1,767 7.4 -28.9°
Enters shadow 23:51:28 55° 175° (S) 1,825 7.4 -28.9°
Drops below altitude 10° 23:59:15 10° 130° (SE) 3,698 - -28.9°
Sets 00:02:17 0° 126° (SE) 4,661 - -28.8°
